Terminal Aerodrome Forecast
Issued by NWS

Home | Current Version | Previous Version | Text Only | Print | Product List | Glossary On
Versions: 1 2 3 4 5 6 7 8 9 10 11 12 13 14 15 16 17 18 19 20 21 22 23
000
FTUS41 KCAR 272337
TAFBHB
TAF
KBHB 272337Z 2800/2824 18004KT P6SM VCFG SCT002
     FM280100 18002KT 1SM BR OVC002
     FM281200 VRB03KT 6SM BR BKN005
     FM281500 VRB03KT P6SM VCSH SCT015 BKN060
     FM281700 27004KT P6SM VCTS BKN060CB
      AMD LTD TO CLD VIS AND WIND=

USA.gov is the U.S. government's official web portal to all federal, state and local government web resources and services.